www.pogodaiklimat.ru
Время
(UTC), дата
06 27.05
09 27.05
12 27.05
15 27.05
18 27.05
21 27.05
00 28.05
03 28.05
06 28.05
09 28.05
12 28.05
15 28.05
18 28.05
21 28.05
00 29.05
03 29.05
06 29.05
09 29.05
12 29.05
15 29.05
18 29.05
21 29.05
00 30.05
03 30.05
06 30.05
09 30.05
12 30.05
15 30.05
18 30.05
21 30.05
00 31.05
03 31.05
06 31.05
09 31.05
12 31.05
15 31.05
18 31.05
21 31.05
00 1.06
03 1.06
06 1.06
09 1.06
12 1.06
15 1.06
18 1.06
21 1.06
00 2.06
03 2.06
06 2.06
09 2.06
12 2.06
15 2.06
18 2.06
21 2.06
00 3.06
03 3.06
Ветер
(напр.,м/с)
Видим. Явления Облачность Т
(С)
Тd
(С)
f
(%)
Тe
(С)
Тes
(С)
Комфортность P
(гПа)
Po
(гПа)
Тmin
(С)
Tmax
(С)
R
(мм)
R24
(мм)
S
(см)
штиль 0 20 км 3/3 1000 м
[Cu hum]
+30.4 +9.4 27 +30 +48 жарко 1009.7 919.1 +20.8
ЮЗ 1 20 км 3/3 1000 м
[Cu hum]
+31.9 +8.0 23 +31 +43 жарко 1008.4 918.3
штиль 0 20 км 6/4 1000 м
[Cb cap Ci fib]
+30.5 +9.8 28 +30 +33 жарко 1008.2 917.7
штиль 0 н/о 8/4 1000 м
[Cb cap Ci fib]
+26.0 +10.0 37 +27 +27 жарко 1009.5 917.6 +32.4
штиль 0 н/о 8/3 1000 м
[Cb cap Ci fib]
+21.6 +10.1 48 +23 +23 комфорт 1011.1 917.9 +32.5
штиль 0 н/о 8/3 1000 м
[Cb cap Ci fib]
+21.6 +10.1 48 +23 +23 комфорт 1011.1 917.9 +32.5
З 1
{3}
20 км 3/0
[Ci fib]
+15.6 +7.5 59 +16 +17 тепло 1015.0 919.5
З 1 20 км ясно +17.0 +8.3 57 +18 +28 тепло 1014.7 919.7
ЮВ 1 20 км 1/1 1000 м
[Cu med, cong]
+22.5 +11.7 50 +25 +45 комфорт 1012.6 919.5 +14.6
В 1 10 км 1/1 1000 м
[Cu med, cong]
+24.4 +9.3 38 +25 +41 комфорт 1010.9 918.5
С 1 10 км 1/1 1000 м
[Cu hum]
+23.7 +7.3 35 +24 +28 комфорт 1010.4 917.7
штиль 0 н/о 3/0
[Ci fib]
+18.8 +3.8 37 +19 +19 тепло 1012.3 917.9 +25.0
штиль 0 н/о ясно +16.4 +5.4 48 +16 +16 тепло 1012.2 917.1 +25.0
штиль 0 н/о ясно +14.8 +5.0 52 +15 +15 тепло 1011.7 916.1
З 1
{4}
20 км ясно +13.5 +5.1 57 +14 +14 тепло 1011.9 916.0
З 1 20 км 3/0
[Ac trans]
+19.8 +6.1 41 +22 +30 комфорт 1010.3 916.5
Ю 1 20 км 8/3 1000 м
[Cu med, cong Ci fib]
+24.0 +7.5 35 +24 +38 комфорт 1008.3 915.9 +13.5
СВ 2 20 км 9/3 1000 м
[Cu med, cong Ac trans Ci fib]
+26.0 +8.8 34 +26 +33 жарко 1007.0 915.4
З 1 20 км 9/3 1000 м
[Cu med, cong Ac trans Ci fib]
+24.2 +8.6 37 +25 +27 комфорт 1008.0 915.7
Ю 1 н/о 4/0
[Ac trans]
+20.1 +9.4 50 +22 +22 комфорт 1009.6 916.0 +26.5
СВ 1 н/о 3/0
[Ac trans]
+19.9 +5.5 39 +22 +22 комфорт 1009.7 915.9 +26.5
штиль 0 н/о 6/0
[Ci fib]
+19.0 +5.2 40 +19 +19 тепло 1009.1 915.1
З 1
{2}
20 км 9/0
[Ac trans]
+18.6 +4.9 40 +20 +20 тепло 1009.5 915.3
Ю 1 20 км 9/3 1000 м
[Cu med, cong Ac trans Ci fib]
+21.0 +10.4 51 +24 +28 комфорт 1009.7 916.4
ЮЗ 1 20 км 10/4 1000 м
[Cb cap Ac As Ci]
+25.2 +10.0 38 +26 +33 жарко 1009.1 917.1 +18.6
штиль 0 20 км 10/5 1000 м
[Cb cap Ac As Ci]
+28.2 +6.8 26 +27 +33 жарко 1008.2 917.0
СВ 1 20 км 10/3 1000 м
[Cb cap Ac trans Ci]
+27.2 +7.8 29 +27 +28 жарко 1008.8 917.3
В 1 н/о 8/3 600 м
[Cb cap Ac trans Ci fib]
+22.6 +6.6 36 +23 +23 комфорт 1011.5 918.4 +28.8
ЮВ 2 н/о 8/3 600 м
[Cb cap Ac trans Ci fib]
+21.4 +3.3 30 +21 +21 комфорт 1012.4 918.8 +28.8
ЮВ 1 н/о 6/3 600 м
[Cb cap Ci fib]
+21.1 +4.3 33 +21 +21 комфорт 1011.8 918.2
штиль 0
{4}
20 км 3/0
[Ci fib]
+19.8 +5.6 39 +20 +21 тепло 1012.2 918.2
С 1 20 км ясно +24.8 +7.2 32 +25 +35 комфорт 1011.0 918.6
С 2 20 км 1/1 1000 м
[Cu med, cong]
+27.4 +5.1 24 +26 +43 жарко 1009.6 918.0 +18.7
С 1 20 км 1/1 1000 м
[Cu med, cong]
+29.0 +3.6 20 +27 +43 жарко 1008.1 917.1
С 1 20 км 1/1 1000 м
[Cu med, cong]
+28.8 +5.8 23 +28 +32 жарко 1007.2 916.3
штиль 0 10 км ясно +24.0 +10.2 42 +25 +25 комфорт 1008.6 916.3 +30.0
ЮВ 1 н/о ясно +22.4 +7.9 39 +23 +23 комфорт 1008.9 916.0 +30.0
штиль 0 20 км 1/0
[Ci fib]
+20.8 +7.1 41 +22 +22 комфорт 1008.5 915.2
штиль 0 20 км 1/0
[Ci fib]
+20.4 +6.0 39 +21 +21 комфорт 1009.1 915.5
СВ 1 20 км 3/0
[Ci fib]
+25.6 +11.1 40 +27 +36 жарко 1007.7 915.9
ЮЗ 1 20 км 4/0
[Ac trans Ci fib]
+30.3 +11.0 30 +30 +48 жарко 1005.7 915.4 +19.9
ЮЗ 2 20 км 9/6 1000 м
[Cb cap Ac trans Ci fib]
+29.1 +12.5 36 +30 +34 жарко 1005.3 914.8
ЮЗ 1 20 км 10/4 600 м
[Cb cap Ac As]
+27.8 +12.4 39 +29 +30 жарко 1005.9 915.0
штиль 0 20 км 10/6 600 м
[Cb cap Ac As Ci fib]
+25.0 +9.3 37 +26 +26 жарко 1006.0 914.2 +30.8
штиль 0 н/о 8/0
[Ac As Ci]
+24.2 +7.1 33 +24 +24 комфорт 1006.5 914.4 +30.8
ЮВ 1 н/о 6/0
[Ci]
+23.8 +6.4 33 +24 +24 комфорт 1006.6 914.3
ЮВ 1
{4}
20 км 10/0
[Ac As Ci]
+24.3 +9.0 38 +25 +25 комфорт 1005.7 913.8
штиль 0 20 км 9/0
[Ac trans Ci]
+27.9 +15.2 46 +31 +39 душно 1005.2 914.5
ЮВ 1 20 км 10/3 600 м
[Cb cap Ac As]
+29.8 +13.0 36 +31 +36 жарко 1005.6 915.3 +22.8
З 1 20 км 10/3 600 м
[Cb cap Ac As Ci fib]
+28.4 +14.3 42 +31 +37 душно 1006.0 915.3
ЮВ 1 20 км 9/3 1000 м
[Cu med, cong Ac trans Ci fib]
+28.2 +12.7 38 +30 +31 жарко 1005.6 914.8
штиль 0 20 км 9/8 1000 м
[Cb cap Ac trans Ci fib]
+24.4 +9.1 38 +25 +25 комфорт 1007.3 915.1 +30.8
штиль 0 н/о 8/6 1000 м
[Cb cap Ac trans]
+24.1 +7.9 35 +24 +24 комфорт 1008.0 915.7 +30.8
штиль 0 н/о 9/3 1000 м
[Cu med, cong Ac trans]
+23.8 +6.7 33 +24 +24 комфорт 1007.6 915.2
штиль 0
{2}
20 км 9/3 1000 м
[Cu med, cong Ac trans]
+23.0 +6.5 34 +24 +24 комфорт 1007.6 915.0
штиль 0 20 км 10/0
[Cs]
+25.5 +14.9 52 +28 +38 жарко 1007.5 915.8
Местоположение метеостанции Алматы (Алматинская область, Казахстан): широта 43.23 долгота 76.93 высота над уровнем моря 851 м.
В архиве по умолчанию представлена погода в Алматы за последнюю неделю. Архивные данные за месяц целиком и за предыдущие месяцы, начиная с января 2011 года, Вы можете получить, выбрав интересующий диапазон дат из раскрывающегося списка и нажав кнопку "Найти!".
*Определитесь, кто Вы:
Внимание! Время в таблицах - всемирное. Для получения местного времени необходимо прибавить поправку, которая равна 6 ч.
Смотрите также архив погоды в соседних городах и на ближайших метеорологических станциях:
Партнеры нашего сайта:      
Пояснения к столбцам:
  • Ветер - указаны скорость ветра в м/с - средняя за 10 мин, порывы в срок и между сроками (в фигурных скобках) и направление, откуда дует ветер: С - северный,
  • СВ - северо-восточный, В - восточный, ЮВ - юго-восточный, Ю - южный, ЮЗ - юго-западный, З - западный, СЗ - северо-западный.
  • Видимость - горизонтальная дальность видимости в метрах или километрах. При видимости от 1 до 10 км при отсутствии осадков обычно наблюдается дымка, при ухудшении видимости до 1 км и менее - туман. В сухую погоду видимость может ухудшаться дымом, пылью или мглою.
  • Явления - указаны атмосферные явления, наблюдавшиеся в срок или в последний час перед сроком; фигурными скобками обозначены явления, наблюдавшиеся между сроками (за 1-3 часа до срока); квадратными скобками обозначены град или гололедные отложения с указанием их диаметра в мм.
  • Облачность - указаны через наклонную черту общая и нижняя облачность в баллах и высота нижней границы облаков в метрах; квадратными скобками обозначены формы облаков: Ci - перистые, Cs - перисто-слоистые, Cc - перисто-кучевые, Ac - высококучевые, As - высокослоистые, Sc - слоисто-кучевые, Ns - слоисто-дождевые, Cu - кучевые, Cb - кучево-дождевые. Подробнее классификацию облаков см. в Атласе облаков (PDF).
  • T - Температура воздуха - температура, измеренная на высоте 2 м над землей.
  • Td - Температура точки росы - температура, при понижении до которой содержащийся в воздухе водяной пар достигнет насыщения.
  • f - Относительная влажность воздуха - влажноcть воздуха, измеренная на высоте 2 м над землей.
  • Te - Эффективная температура - температура, которую ощущает одетый по сезону человек в тени. Характеристика душности погоды. При расчете учитывается влияние влажности воздуха и скорости ветра на теплоощущения человека.
  • Tes - Эффективная температура на солнце - температура, которую ощущает человек, с поправкой на солнечный нагрев. Характеристика знойности погоды. Зависит от высоты солнца над горизонтом, облачности и скорости ветра. Ночью, в пасмурную погоду, а также при ветре 12 м/с и более поправка равна нулю.
  • P - Атмосферное давление - приведенное к уровню моря атмосферное давление.
  • Po - Атмосферное давление - измеренное на уровне метеостанции атмосферное давление.
  • Tmin - Минимальная температура - минимум температуры воздуха на высоте 2 м над землей.
  • Tmax - Максимальная температура - максимум температуры воздуха на высоте 2 м над землей.
  • R - Количество осадков - Количество выпавших осадков за период времени, мм. При наведении курсора мыши на число - период времени, за который выпало указанное количество осадков.
  • R24 - Количество осадков - Количество выпавших осадков за 24 часа, мм.
  • S - Снежный покров - Высота снежного покрова, см. При наведении курсора мыши на число - состояние снежного покрова и степень покрытия местности в баллах.